Location: Calvera
(42.3882°N, 0.6137°E)
Time: 19:09:12
(UTC+00:00)

Cosmos 1697 Rocket - Pass Details

Date: 28 October 2020
Orbit: 831 x 845 km, 71.0° (Epoch: 23 November)

Event Time Altitude Azimuth Distance (km) Brightness Sun altitude
Exits shadow 04:17:01 20° 338° (NNW) 1,841 4.3 -24.4°
Maximum altitude 04:21:01 84° 66° (ENE) 854 2.7 -23.7°
Drops below altitude 10° 04:26:40 10° 155° (SSE) 2,457 5.4 -22.6°
Sets 04:29:06 0° 156° (SSE) 3,388 6.1 -22.2°
